Weather in Ukromnoye

Russia / Republic of Crimea     45°02′45″N   34°00′13″E
temp.,
°C
wind,
m/s
gust,
m/s
humid.,
%
clouds,
%
prec.,
mm/h
press.,
hPa
HPBL,
m
8 august, mon
mon800:00+21ene35600 0.0 101366
03:00+20ne35580 0.0 101384
06:00+20ene49620 0.0 1013167
09:00+28ene611340 0.0 1014840
12:00+34ene79170 0.0 10133226
15:00+34ene99150 0.0 10133300
18:00+32ene810160 0.0 10132333
21:00+24ene48310 0.0 1013114
9 august, tue
tue900:00+22ene47380 0.0 1013102
03:00+20ene46500 0.0 101379
06:00+20ene47690 0.0 1013109
09:00+29ene712380 0.0 10131207
12:00+34ene1013160 0.0 10123141
15:00+34ene1011160 0.0 10113113
18:00+32ene8921100 0.0 10111863
21:00+24ene4834100 0.0 1011123
10 august, wed
wed1000:00+23ene4741100 0.0 1010112
03:00+22ene3449100 0.0 101063
06:00+21ene36715 0.0 100994
09:00+29ne813370 0.0 10081890
12:00+32ene111224100 0.0 10072181
15:00+32ene101028100 0.0 10072073
18:00+31ne792869 0.8 10071633
21:00+25ne484096 0.8 1007207
11 august, thu
thu1100:00+22ne226499 0.6 100630
03:00+22ne345998 0.7 100661
06:00+23ene386586 0.0 1006157
09:00+29ne694180 0.2 1007814
12:00+33ne773519 0.0 10062196
15:00+30ne984456 0.2 10081686
18:00+29ene675026 0.6 10081442
21:00+21ene48870 2.5 1010163
12 august, fri
fri1200:00+21ene23870 0.5 101050
03:00+20ene22860 0.6 101026
06:00+20ene33850 0.0 101052
09:00+26ene44690 0.0 1009538
12:00+32nne23388 0.0 10092025
15:00+32wsw343790 0.0 10081505
18:00+30nw544748 0.0 10101109
21:00+22wsw22850 0.0 101133